User: anonymous   Login
Location: Unspecified
(0.0000°N, 0.0000°E)
Time: 22:13:19
(UTC+00:00)
Language:

S80/T - Orbit

View from above orbital plane
View from above orbital plane
View from above satellite
View from above satellite

Ground track
Ground track

The orbit data is extracted from the following two-line orbital elements,

1 22078U 92052C   24151.06678317 -.00000041  00000-0  83363-4 0  9991
2 22078  66.0871  36.3940 0017124 273.4013  86.5047 12.86824297493970
Epoch (UTC): 30 May 2024 01:36:10
Eccentricity: 0.0017124
inclination: 66.0871°
perigee height: 1301 km
apogee height: 1327 km
right ascension of ascending node: 36.3940°
argument of perigee: 273.4013°
revolutions per day: 12.86824297
mean anomaly at epoch: 86.5047°
orbit number at epoch: 49397

The dashed part of the orbit path shows where the satellite is in the earth's shadow,  

DLR